Starlink 35751

operational
NORAD ID: 66209 Int'l Des: 2025-244 Owner: SPXS Country: US Constellation: starlink
NOTLE

Über Starlink 35751

Beschreibung wird geladen...

Live-Position

3D-Globus wird geladen...

Nächste Überflüge

Höhenverlauf

Altitude vs Time

uPlot chart will show altitude changes over time

Zweizeiliger Elementsatz

1 66209C 25244C 25301.73798611 .03653800 00000+0 50504-2 0 3010
2 66209 53.1571 134.0920 0011219 276.3814 323.2707 16.01721994 16
Epoch: 28. Okt. 2025 • Age: 84 hours

Aktueller Status

Höhe 179.9 km
Geschwindigkeit 7.80 km/s
Subsatellitenpunkt -22.75°S, 91.43°E
Startdatum 28. Okt. 2025
Alter 3 days
Typ internet

Technische Details

Klassifizierung Payload
Masse 575.00 kg
Trockenmasse 530.00 kg
Gesamtmasse 575.00 kg
Länge 0.30 m
Durchmesser 4.10 m
Spannweite 29.00 m
Form Box + pan
Hersteller SPXS
Bus-Typ Starlink V2MO
Phasenstatus In Orbit
Besitzer/Staat SPXS/US

Große Konstellationen

Loading constellations...